map of BDS home
Great Circle Mapper logo
BDS - Airport
Location
City:  Brindisi, Apulia, Italy
Name:Casale
ICAO / IATA:LIBR / BDS

Details
Type:Airport (Aerodrome, Airfield)
Use:Public/Civil, Military, International (customs port of entry)
Latitude:4039'27"N (40.657633)
Longitude:1756'49"E (17.947033)
Datum:WGS 1984
Elevation:47 ft (14 m)
Variation:3.6E (WMM2015 magnetic declination)
Runways:2
Longest:8307 × 148 ft (2532 × 45 m), paved

Time
Time Zone:UTC+1 (DST+2)
Local Time:

Weather
METAR:LIBR 190045Z 30007KT 9999 SCT020 11/10 Q1022 NOSIG RMK BKN SCT060 VIS MIN 9999 WIND THR13 /////KT WIND THR31 29004KT BLU
TAF:LIBR 182300Z 1900/1924 26005KT 9999 SCT020
TEMPO 1900/1906 BKN020

Related Locations
Nearby:
Farthest:CHT: 11671 mi / 18783 km
Waitangi [Tuuta], Chatham Islands, NZ

Find:

   beyond  
but within

Other Information
Maps:
NOTAMs:
Links:
Sources:

  
flag of Italy
flag of Apulia
  

Airport Diagram

Airport diagram for BDS

Airport diagram (OBSOLETE) from NGA

Sectional Chart

Flight Planning
at skyvector.com

Satellite Image

Google Maps Satellite View

 

Copyright © 2004-2014 Karl L. Swartz. All rights reserved.
The Great Circle Mapper name and logo are trademarks of the Great Circle Mapper.
All other trademarks mentioned herein belong to their respective owners.
Please see credits for attibutions and further copyright information.

  Follow gcmap on Facebook Follow gcmap on Twitter

hCard Microformat

Geo Microformat